| time (UTC) | temp F | wind direction | speed MPH | gust MPH | rain 1hr in | rain 24hr in | rain mn in | humidity % | barometer mb |
| 20260507120031 | 61 | 356 | 21.0 | 30.0 | 0.02 | 0.05 | 0.00 | 97 | 1018.3 |
| 20260507115030 | 61 | 343 | 22.0 | 34.0 | 0.04 | 0.05 | 0.05 | 96 | 1018.3 |
| 20260507114104 | 61 | 338 | 21.0 | 37.0 | 0.02 | 0.04 | 0.04 | 95 | 1018.5 |
| 20260507113042 | 61 | 358 | 21.0 | 31.0 | 0.04 | 0.04 | 0.04 | 95 | 1018.6 |
| 20260507112017 | 61 | 350 | 22.0 | 32.0 | 0.02 | 0.02 | 0.02 | 94 | 1018.8 |
| 20260507111114 | 61 | 341 | 21.0 | 34.0 | 0.02 | 0.02 | 0.02 | 94 | 1018.9 |
| 20260507110110 | 61 | 1 | 20.0 | 33.0 | 0.02 | 0.02 | 0.02 | 93 | 1018.9 |
| 20260507105107 | 61 | 13 | 21.0 | 33.0 | 0.01 | 0.01 | 0.01 | 92 | 1018.9 |
| 20260507104103 | 61 | 350 | 20.0 | 32.0 | 0.01 | 0.01 | 0.01 | 90 | 1018.9 |
| 20260507103102 | 62 | 348 | 22.0 | 36.0 | 0.00 | 0.00 | 0.00 | 89 | 1019.2 |
| 20260507102056 | 62 | 353 | 21.0 | 29.0 | 0.00 | 0.00 | 0.00 | 88 | 1019.3 |
| 20260507101117 | 62 | 348 | 21.0 | 29.0 | 0.00 | 0.00 | 0.00 | 89 | 1019.5 |
| 20260507100050 | 0 | 0.0 | 0.0 | 0.00 | 0.00 | 0.00 | 1019.6 | ||
| 20260507095046 | 62 | 0 | 21.0 | 22.0 | 0.00 | 0.00 | 0.00 | 90 | 1019.5 |
| 20260507094042 | 62 | 7 | 19.0 | 28.0 | 0.00 | 0.00 | 0.00 | 90 | 1019.5 |
| 20260507093041 | 62 | 8 | 20.0 | 27.0 | 0.00 | 0.00 | 0.00 | 90 | 1019.4 |
| 20260507092037 | 62 | 349 | 19.0 | 28.0 | 0.00 | 0.00 | 0.00 | 90 | 1019.3 |
| 20260507091032 | 62 | 351 | 19.0 | 31.0 | 0.00 | 0.00 | 0.00 | 89 | 1019.3 |
| 20260507090028 | 62 | 0 | 18.0 | 23.0 | 0.00 | 0.00 | 0.00 | 86 | 1019.3 |
| 20260507085025 | 62 | 348 | 18.0 | 28.0 | 0.00 | 0.00 | 0.00 | 84 | 1019.2 |
| 20260507084045 | 63 | 359 | 20.0 | 31.0 | 0.00 | 0.00 | 0.00 | 83 | 1019.1 |
| 20260507083019 | 63 | 357 | 23.0 | 36.0 | 0.00 | 0.00 | 0.00 | 83 | 1019.1 |
| 20260507082135 | 63 | 339 | 22.0 | 33.0 | 0.00 | 0.00 | 0.00 | 83 | 1019.1 |
| 20260507081111 | 63 | 355 | 19.0 | 29.0 | 0.00 | 0.00 | 0.00 | 83 | 1019.1 |
| 20260507080110 | 63 | 0 | 21.0 | 31.0 | 0.00 | 0.00 | 0.00 | 83 | 1019.3 |
| 20260507075106 | 63 | 339 | 21.0 | 33.0 | 0.00 | 0.00 | 0.00 | 83 | 1019.4 |
| 20260507074101 | 63 | 1 | 20.0 | 28.0 | 0.00 | 0.00 | 0.00 | 83 | 1019.4 |
| 20260507073057 | 63 | 1 | 24.0 | 34.0 | 0.00 | 0.00 | 0.00 | 82 | 1019.4 |
| 20260507072056 | 63 | 351 | 21.0 | 29.0 | 0.00 | 0.00 | 0.00 | 81 | 1019.3 |
| 20260507071050 | 63 | 351 | 22.0 | 31.0 | 0.00 | 0.00 | 0.00 | 81 | 1019.3 |
| 20260507070047 | 63 | 353 | 20.0 | 30.0 | 0.00 | 0.00 | 0.00 | 80 | 1019.2 |
| 20260507065103 | 63 | 6 | 21.0 | 33.0 | 0.00 | 0.00 | 0.00 | 80 | 1019.0 |
| 20260507064040 | 63 | 16 | 21.0 | 34.0 | 0.00 | 0.00 | 0.00 | 80 | 1018.9 |
| 20260507063036 | 63 | 359 | 21.0 | 32.0 | 0.00 | 0.00 | 0.00 | 80 | 1019.0 |
| 20260507062055 | 63 | 350 | 21.0 | 34.0 | 0.00 | 0.00 | 0.00 | 81 | 1018.9 |
| 20260507061031 | 63 | 354 | 20.0 | 29.0 | 0.00 | 0.00 | 0.00 | 82 | 1018.9 |
| 20260507060026 | 63 | 7 | 21.0 | 29.0 | 0.00 | 0.00 | 0.00 | 82 | 1018.9 |
| 20260507055025 | 63 | 355 | 20.0 | 29.0 | 0.00 | 0.00 | 0.00 | 82 | 1018.9 |
| 20260507054019 | 63 | 337 | 24.0 | 34.0 | 0.00 | 0.00 | 0.00 | 81 | 1018.9 |
| 20260507053015 | 63 | 351 | 20.0 | 31.0 | 0.00 | 0.00 | 0.00 | 82 | 1019.0 |
| 20260507052112 | 63 | 349 | 19.0 | 27.0 | 0.00 | 0.00 | 0.00 | 82 | 1019.1 |
| 20260507051110 | 63 | 348 | 20.0 | 30.0 | 0.00 | 0.00 | 0.00 | 81 | 1019.1 |
| 20260507050107 | 63 | 345 | 17.0 | 24.0 | 0.00 | 0.00 | 0.00 | 81 | 1019.3 |
| 20260507045124 | 63 | 346 | 21.0 | 30.0 | 0.00 | 0.00 | 0.00 | 80 | 1019.2 |
| 20260507044058 | 63 | 360 | 21.0 | 32.0 | 0.00 | 0.00 | 0.00 | 80 | 1019.2 |
| 20260507043054 | 63 | 341 | 20.0 | 30.0 | 0.00 | 0.00 | 0.00 | 78 | 1019.3 |
| 20260507042051 | 63 | 5 | 21.0 | 30.0 | 0.00 | 0.00 | 0.00 | 76 | 1019.4 |
| 20260507041047 | 63 | 352 | 23.0 | 34.0 | 0.00 | 0.00 | 0.00 | 73 | 1019.5 |
| 20260507040044 | 63 | 0 | 21.0 | 30.0 | 0.00 | 0.00 | 0.00 | 73 | 1019.6 |
| 20260507035102 | 64 | 357 | 22.0 | 31.0 | 0.00 | 0.00 | 0.00 | 71 | 1019.6 |
| 20260507034037 | 63 | 356 | 20.0 | 30.0 | 0.00 | 0.00 | 0.00 | 73 | 1019.9 |
| 20260507033033 | 63 | 356 | 20.0 | 32.0 | 0.00 | 0.00 | 0.00 | 73 | 1020.0 |
| 20260507032031 | 64 | 3 | 21.0 | 35.0 | 0.00 | 0.00 | 0.00 | 71 | 1019.9 |
| 20260507031028 | 64 | 354 | 21.0 | 35.0 | 0.00 | 0.00 | 0.00 | 70 | 1020.0 |
| 20260507030043 | 64 | 345 | 20.0 | 30.0 | 0.00 | 0.00 | 0.00 | 70 | 1020.1 |
| 20260507025020 | 64 | 1 | 21.0 | 29.0 | 0.00 | 0.00 | 0.00 | 69 | 1020.3 |
| 20260507024017 | 64 | 351 | 19.0 | 30.0 | 0.00 | 0.00 | 0.00 | 69 | 1020.5 |
| 20260507023134 | 63 | 356 | 23.0 | 36.0 | 0.00 | 0.00 | 0.00 | 70 | 1020.7 |
| 20260507022111 | 63 | 347 | 21.0 | 34.0 | 0.00 | 0.00 | 0.00 | 71 | 1020.9 |
| 20260507021106 | 63 | 356 | 22.0 | 29.0 | 0.00 | 0.00 | 0.00 | 71 | 1021.0 |
| 20260507015059 | 63 | 354 | 20.0 | 36.0 | 0.00 | 0.00 | 0.00 | 71 | 1021.3 |
| 20260507014055 | 63 | 349 | 19.0 | 29.0 | 0.00 | 0.00 | 0.00 | 73 | 1021.4 |
| 20260507013112 | 63 | 353 | 21.0 | 30.0 | 0.00 | 0.00 | 0.00 | 73 | 1021.4 |
| 20260507012048 | 63 | 341 | 20.0 | 29.0 | 0.00 | 0.00 | 0.00 | 74 | 1021.4 |
| 20260507011046 | 63 | 356 | 21.0 | 34.0 | 0.00 | 0.00 | 0.00 | 72 | 1021.5 |
| 20260507005037 | 64 | 354 | 24.0 | 34.0 | 0.00 | 0.00 | 0.00 | 71 | 1022.1 |
| 20260507004033 | 64 | 9 | 22.0 | 31.0 | 0.00 | 0.00 | 0.00 | 71 | 1022.1 |
| 20260507003031 | 63 | 4 | 21.0 | 37.0 | 0.00 | 0.00 | 0.00 | 73 | 1022.4 |
| 20260507002026 | 63 | 359 | 21.0 | 29.0 | 0.00 | 0.00 | 0.00 | 72 | 1022.6 |
| 20260507001024 | 64 | 345 | 21.0 | 33.0 | 0.00 | 0.00 | 0.00 | 71 | 1022.5 |
| 20260507000019 | 64 | 348 | 21.0 | 34.0 | 0.00 | 0.00 | 0.00 | 71 | 1022.5 |
| 20260506235101 | 64 | 357 | 21.0 | 33.0 | 0.00 | 0.00 | 0.00 | 71 | 1022.5 |
| 20260506234114 | 64 | 347 | 20.0 | 32.0 | 0.00 | 0.00 | 0.00 | 73 | 1022.6 |
| 20260506233109 | 63 | 359 | 19.0 | 29.0 | 0.00 | 0.00 | 0.00 | 74 | 1022.6 |
| 20260506232106 | 63 | 343 | 21.0 | 30.0 | 0.00 | 0.00 | 0.00 | 76 | 1022.7 |
| 20260506231103 | 63 | 358 | 19.0 | 28.0 | 0.00 | 0.00 | 0.00 | 77 | 1022.7 |
| 20260506230058 | 63 | 354 | 21.0 | 33.0 | 0.00 | 0.00 | 0.00 | 78 | 1022.7 |
| 20260506225115 | 63 | 345 | 18.0 | 34.0 | 0.00 | 0.00 | 0.00 | 79 | 1022.9 |
| 20260506224052 | 62 | 4 | 20.0 | 28.0 | 0.00 | 0.00 | 0.00 | 80 | 1023.0 |
| 20260506223110 | 63 | 8 | 19.0 | 28.0 | 0.00 | 0.00 | 0.00 | 81 | 1023.1 |
| 20260506222046 | 62 | 356 | 18.0 | 26.0 | 0.00 | 0.00 | 0.00 | 82 | 1023.3 |
| 20260506221042 | 62 | 356 | 20.0 | 28.0 | 0.00 | 0.00 | 0.00 | 83 | 1023.3 |
| 20260506220038 | 62 | 0 | 18.0 | 29.0 | 0.00 | 0.00 | 0.00 | 84 | 1023.4 |
| 20260506215034 | 62 | 347 | 18.0 | 24.0 | 0.00 | 0.00 | 0.00 | 85 | 1023.4 |
| 20260506214032 | 62 | 5 | 20.0 | 30.0 | 0.00 | 0.00 | 0.00 | 85 | 1023.4 |
| 20260506213027 | 61 | 13 | 18.0 | 30.0 | 0.00 | 0.00 | 0.00 | 86 | 1023.6 |
| 20260506212025 | 61 | 5 | 18.0 | 27.0 | 0.00 | 0.00 | 0.00 | 87 | 1023.7 |
| 20260506211022 | 61 | 359 | 17.0 | 26.0 | 0.00 | 0.00 | 0.00 | 88 | 1023.8 |
| 20260506210016 | 61 | 17 | 17.0 | 28.0 | 0.00 | 0.00 | 0.00 | 89 | 1023.8 |
| 20260506205134 | 61 | 0 | 14.0 | 21.0 | 0.00 | 0.00 | 0.00 | 90 | 1023.9 |
| 20260506204110 | 61 | 6 | 16.0 | 23.0 | 0.00 | 0.00 | 0.00 | 91 | 1023.9 |
| 20260506203108 | 61 | 354 | 17.0 | 27.0 | 0.00 | 0.00 | 0.00 | 91 | 1024.0 |
| 20260506202103 | 61 | 344 | 16.0 | 21.0 | 0.00 | 0.00 | 0.00 | 91 | 1024.0 |
| 20260506201059 | 60 | 9 | 16.0 | 24.0 | 0.00 | 0.00 | 0.00 | 91 | 1024.0 |
| 20260506200057 | 60 | 360 | 17.0 | 23.0 | 0.00 | 0.00 | 0.00 | 92 | 1023.9 |
| 20260506195054 | 60 | 353 | 18.0 | 24.0 | 0.00 | 0.00 | 0.00 | 92 | 1023.9 |
| 20260506194049 | 60 | 1 | 16.0 | 21.0 | 0.00 | 0.00 | 0.00 | 92 | 1023.8 |
| 20260506193045 | 60 | 343 | 17.0 | 22.0 | 0.00 | 0.00 | 0.00 | 92 | 1023.8 |
| 20260506192044 | 60 | 356 | 16.0 | 24.0 | 0.00 | 0.00 | 0.00 | 92 | 1023.9 |
| 20260506191038 | 60 | 343 | 16.0 | 25.0 | 0.00 | 0.00 | 0.00 | 91 | 1023.9 |
| 20260506190035 | 60 | 359 | 15.0 | 23.0 | 0.00 | 0.00 | 0.00 | 90 | 1023.9 |
| 20260506185033 | 60 | 343 | 16.0 | 24.0 | 0.00 | 0.00 | 0.00 | 89 | 1024.0 |
| 20260506184048 | 60 | 351 | 17.0 | 23.0 | 0.00 | 0.00 | 0.00 | 88 | 1024.1 |
| 20260506183025 | 60 | 18 | 16.0 | 26.0 | 0.00 | 0.00 | 0.00 | 88 | 1024.1 |
| 20260506182041 | 60 | 312 | 16.0 | 21.0 | 0.00 | 0.00 | 0.00 | 88 | 1024.2 |
| 20260506181018 | 60 | 347 | 15.0 | 23.0 | 0.00 | 0.00 | 0.00 | 87 | 1024.3 |
| 20260506180117 | 60 | 8 | 15.0 | 21.0 | 0.00 | 0.00 | 0.00 | 87 | 1024.2 |
| 20260506175111 | 60 | 9 | 16.0 | 21.0 | 0.00 | 0.00 | 0.00 | 86 | 1024.2 |
| 20260506174110 | 60 | 348 | 16.0 | 23.0 | 0.00 | 0.00 | 0.00 | 86 | 1024.3 |
| 20260506173105 | 60 | 356 | 17.0 | 23.0 | 0.00 | 0.00 | 0.00 | 85 | 1024.4 |
| 20260506172100 | 60 | 8 | 19.0 | 28.0 | 0.00 | 0.00 | 0.00 | 86 | 1024.4 |
| 20260506171119 | 60 | 355 | 18.0 | 30.0 | 0.00 | 0.00 | 0.00 | 87 | 1024.4 |
| 20260506170053 | 60 | 355 | 15.0 | 26.0 | 0.00 | 0.00 | 0.00 | 88 | 1024.3 |
| 20260506165049 | 60 | 353 | 16.0 | 23.0 | 0.00 | 0.00 | 0.00 | 88 | 1024.2 |
| 20260506164047 | 60 | 351 | 15.0 | 21.0 | 0.00 | 0.00 | 0.00 | 87 | 1024.3 |
| 20260506163042 | 60 | 7 | 13.0 | 20.0 | 0.00 | 0.00 | 0.00 | 86 | 1024.4 |
| 20260506162039 | 60 | 342 | 14.0 | 22.0 | 0.00 | 0.00 | 0.00 | 86 | 1024.5 |
| 20260506161035 | 60 | 360 | 14.0 | 23.0 | 0.00 | 0.00 | 0.00 | 85 | 1024.8 |
| 20260506160034 | 61 | 16 | 15.0 | 23.0 | 0.00 | 0.00 | 0.00 | 86 | 1025.0 |
| 20260506155028 | 60 | 8 | 15.0 | 22.0 | 0.00 | 0.00 | 0.00 | 86 | 1025.1 |
| 20260506154106 | 60 | 3 | 14.0 | 21.0 | 0.00 | 0.00 | 0.00 | 86 | 1025.2 |
| 20260506153023 | 60 | 354 | 15.0 | 24.0 | 0.00 | 0.00 | 0.00 | 87 | 1025.3 |
| 20260506152018 | 60 | 350 | 15.0 | 25.0 | 0.00 | 0.00 | 0.00 | 88 | 1025.5 |
| 20260506151116 | 60 | 3 | 14.0 | 23.0 | 0.00 | 0.00 | 0.00 | 87 | 1025.6 |
| 20260506150111 | 60 | 353 | 13.0 | 18.0 | 0.00 | 0.00 | 0.00 | 86 | 1025.7 |
| 20260506145109 | 60 | 353 | 14.0 | 23.0 | 0.00 | 0.00 | 0.00 | 85 | 1026.0 |
| 20260506144124 | 61 | 8 | 14.0 | 22.0 | 0.00 | 0.00 | 0.00 | 85 | 1026.1 |
| 20260506143101 | 61 | 14 | 16.0 | 27.0 | 0.00 | 0.00 | 0.00 | 84 | 1026.2 |
| 20260506142059 | 61 | 353 | 15.0 | 23.0 | 0.00 | 0.00 | 0.00 | 84 | 1026.2 |
| 20260506141116 | 61 | 346 | 15.0 | 21.0 | 0.00 | 0.00 | 0.00 | 84 | 1026.4 |
| 20260506140050 | 61 | 356 | 14.0 | 27.0 | 0.00 | 0.00 | 0.00 | 84 | 1026.4 |
| 20260506135046 | 61 | 17 | 17.0 | 24.0 | 0.00 | 0.00 | 0.00 | 84 | 1026.4 |
| 20260506134043 | 61 | 357 | 14.0 | 22.0 | 0.00 | 0.00 | 0.00 | 85 | 1026.4 |
| 20260506133100 | 61 | 14 | 16.0 | 26.0 | 0.00 | 0.00 | 0.00 | 86 | 1026.4 |
| 20260506132057 | 61 | 12 | 15.0 | 23.0 | 0.00 | 0.00 | 0.00 | 86 | 1026.4 |
| 20260506131031 | 61 | 356 | 15.0 | 23.0 | 0.00 | 0.00 | 0.00 | 86 | 1026.5 |
| 20260506130028 | 61 | 347 | 12.0 | 21.0 | 0.00 | 0.00 | 0.00 | 87 | 1026.4 |
| 20260506125024 | 61 | 9 | 16.0 | 24.0 | 0.00 | 0.00 | 0.00 | 87 | 1026.6 |
| 20260506124021 | 61 | 346 | 11.0 | 18.0 | 0.00 | 0.00 | 0.00 | 87 | 1026.7 |
| 20260506123017 | 61 | 342 | 14.0 | 21.0 | 0.00 | 0.00 | 0.00 | 87 | 1026.7 |
| 20260506122116 | 61 | 340 | 13.0 | 17.0 | 0.00 | 0.00 | 0.00 | 87 | 1026.7 |
| 20260506121111 | 61 | 359 | 15.0 | 23.0 | 0.00 | 0.00 | 0.00 | 86 | 1026.8 |